TimeEDT,TemperatureF,Dew PointF,Humidity,Sea Level PressureIn,VisibilityMPH,Wind Direction,Wind SpeedMPH,Gust SpeedMPH,PrecipitationIn,Events,Conditions,WindDirDegrees,DateUTC
12:53 AM,75.9,73.9,94,29.90,8.0,SSE,3.5,-,N/A,,Overcast,160,2013-03-24 04:53:00
1:36 AM,75.2,75.2,100,29.89,6.0,SSE,8.1,-,N/A,,Mostly Cloudy,160,2013-03-24 05:36:00
1:50 AM,75.2,75.2,100,29.88,6.0,South,8.1,-,N/A,,Mostly Cloudy,170,2013-03-24 05:50:00
1:53 AM,75.0,75.0,100,29.88,6.0,South,6.9,-,N/A,,Mostly Cloudy,170,2013-03-24 05:53:00
2:20 AM,75.2,75.2,100,29.87,6.0,South,6.9,-,N/A,,Scattered Clouds,180,2013-03-24 06:20:00
2:45 AM,75.2,75.2,100,29.86,5.0,SSE,6.9,-,N/A,,Mostly Cloudy,160,2013-03-24 06:45:00
2:53 AM,75.0,75.0,100,29.86,5.0,SSE,9.2,-,N/A,,Mostly Cloudy,160,2013-03-24 06:53:00
3:53 AM,75.0,75.0,100,29.84,5.0,SSE,6.9,-,N/A,,Overcast,160,2013-03-24 07:53:00
4:53 AM,75.0,75.0,100,29.83,7.0,South,9.2,-,N/A,,Mostly Cloudy,170,2013-03-24 08:53:00
5:20 AM,75.2,75.2,100,29.82,6.0,South,6.9,-,N/A,,Scattered Clouds,170,2013-03-24 09:20:00
5:53 AM,75.0,75.0,100,29.82,6.0,South,6.9,-,N/A,,Clear,180,2013-03-24 09:53:00
6:53 AM,75.0,73.9,96,29.81,8.0,South,6.9,-,N/A,,Clear,180,2013-03-24 10:53:00
7:53 AM,75.0,73.9,96,29.81,8.0,South,10.4,-,N/A,,Partly Cloudy,190,2013-03-24 11:53:00
8:53 AM,78.1,73.0,84,29.79,10.0,South,11.5,20.7,N/A,,Scattered Clouds,190,2013-03-24 12:53:00
9:53 AM,80.1,73.0,79,29.79,10.0,South,16.1,-,N/A,,Scattered Clouds,190,2013-03-24 13:53:00
10:53 AM,82.0,72.0,71,29.79,10.0,SSW,20.7,31.1,N/A,,Scattered Clouds,200,2013-03-24 14:53:00
11:53 AM,84.9,69.1,59,29.79,10.0,SW,23.0,33.4,N/A,,Scattered Clouds,220,2013-03-24 15:53:00
12:53 PM,88.0,69.1,53,29.78,10.0,SSW,21.9,31.1,N/A,,Scattered Clouds,210,2013-03-24 16:53:00
1:53 PM,89.1,68.0,50,29.77,10.0,SW,24.2,34.5,N/A,,Mostly Cloudy,230,2013-03-24 17:53:00
2:53 PM,91.0,68.0,47,29.74,10.0,SW,25.3,33.4,N/A,,Partly Cloudy,230,2013-03-24 18:53:00
3:53 PM,90.0,66.9,46,29.71,10.0,WSW,25.3,34.5,N/A,,Partly Cloudy,240,2013-03-24 19:53:00
4:53 PM,87.1,68.0,53,29.72,10.0,West,27.6,34.5,N/A,,Mostly Cloudy,260,2013-03-24 20:53:00
5:53 PM,84.9,68.0,57,29.72,10.0,WSW,23.0,32.2,N/A,,Scattered Clouds,240,2013-03-24 21:53:00
6:53 PM,82.9,68.0,60,29.72,10.0,SW,20.7,31.1,N/A,,Partly Cloudy,230,2013-03-24 22:53:00
7:53 PM,81.0,69.1,67,29.75,10.0,WSW,13.8,29.9,N/A,,Partly Cloudy,250,2013-03-24 23:53:00
8:53 PM,80.1,69.1,69,29.78,10.0,WSW,11.5,-,N/A,,Mostly Cloudy,250,2013-03-25 00:53:00
9:53 PM,80.1,69.1,69,29.79,10.0,WSW,10.4,-,N/A,,Overcast,250,2013-03-25 01:53:00
10:53 PM,79.0,72.0,79,29.80,10.0,WSW,11.5,-,0.00,Rain,Light Rain,250,2013-03-25 02:53:00
11:53 PM,78.1,72.0,81,29.78,10.0,WSW,9.2,-,0.00,,Overcast,240,2013-03-25 03:53:00